Regional Weather Roundup
Issued by NWS Northern Indiana

Current Version | Previous Version | Text Only | Print | Product List | Glossary On
Versions: 1 2 3 4 5 6 7 8 9 10 11 12 13 14 15 16 17 18 19 20 21 22 23 24 25 26 27 28 29 30 31 32 33 34 35 36 37 38 39 40 41 42 43 44 45 46 47 48 49 50
000
ASUS43 KIWX 020110
RWRIWX

KIWX WEATHER ROUNDUP
NATIONAL WEATHER SERVICE NORTHERN INDIANA
800 PM EST SUN MAR 01 2015

NOTE: "FAIR" INDICATES FEW OR NO CLOUDS BELOW 12,000 FEET WITH NO
SIGNIFICANT WEATHER AND/OR OBSTRUCTIONS TO VISIBILITY.

* THESE STATIONS ARE NOT UNDER NWS QUALITY CONTROL. THEY ALSO MAY NOT
  REPORT WEATHER SUCH AS PRECIPITATION OR FOG.

INZ001>027-020200-
NORTHERN INDIANA

CITY           SKY/WX    TMP DP  RH WIND       PRES   REMARKS
GARY*          PTCLDY    23  12  63 W12G23    30.31R WCI  12
VALPARAISO     PTCLDY    20  15  81 W14       30.30R WCI   7
MICHIGAN CITY* CLOUDY    23  14  68 SW7       30.29R WCI  15
LAPORTE*       MOCLDY    22  17  79 W7        30.29R WCI  14
KNOX*            N/A     19   9  63 W8        30.29R WCI   9
SOUTH BEND     CLOUDY    23  17  78 SW9       30.27R WCI  13
GOSHEN         MOCLDY    18  13  80 W7        30.26R WCI   9
MONTICELLO*    PTCLDY    18  17  93 W6        30.31R WCI  10
LOGANSPORT*    PTCLDY    18  16  93 W9        30.31R WCI   6
ROCHESTER*     PTCLDY    23  19  86 SW5       30.29R WCI  17
WARSAW*        CLOUDY    19  18  93 W5        30.26S WCI  13
ANGOLA*        MOCLDY    16  12  86 W3        30.23S
FORT WAYNE     MOCLDY    19  16  88 W9        30.27R WCI   8
HUNTINGTON*    FAIR      20  15  81 W6        30.27R WCI  13
PERU/GRISSOM   CLEAR     17  15  90 SW8       30.29R WCI   7
MARION*        CLOUDY    22  20  93 W10       30.29S WCI  11

$$
INZ028>050-020200-
CENTRAL INDIANA

CITY           SKY/WX    TMP DP  RH WIND       PRES   REMARKS
LAFAYETTE      PTCLDY    20  17  88 W8        30.34R WCI  10
KOKOMO*        PTCLDY    21  18  86 W9        30.30R WCI  11
MUNCIE*        CLOUDY    22  20  92 W5        30.29R WCI  16
INDIANAPOLIS   CLOUDY    27  23  85 NW10      30.31R WCI  17

$$
MIZ043>046-050>051-056>058-064>065-071>073-077>080-020200-
SOUTHWEST LOWER MICHIGAN

CITY           SKY/WX    TMP DP  RH WIND       PRES   REMARKS
BATTLE CREEK   CLOUDY    24  16  71 W10       30.22S WCI  14
BENTON HARBOR    N/A     23  19  85 SW12      30.27R WCI  12
COLDWATER*     CLOUDY    17  13  87 W3        30.22S
HILLSDALE*     PTCLDY    20  16  86 W3        30.20S
HOLLAND        CLOUDY    25  19  78 SW10      30.24S WCI  15
GRAND RAPIDS   CLOUDY    23  17  78 W14       30.22S WCI  11
KALAMAZOO      CLOUDY    24  16  71 W16       30.24R WCI  11
STURGIS*       CLOUDY    21  18  86 CALM      30.23S
THREE RIVERS*  CLOUDY    24  17  74 W8        30.24S WCI  15

$$
OHZ001>008-015>018-024>025-020200-
NORTHWEST OHIO

CITY           SKY/WX    TMP DP  RH WIND       PRES   REMARKS
WAUSEON*       FAIR      19  18  93 SW3       30.23F
DEFIANCE       PTCLDY    20  16  84 CALM      30.25S FOG
FINDLAY        MOCLDY    23  19  85 SW5       30.23S FOG     WCI  17
TOLEDO EXPRESS MOCLDY    15  13  91 SW3       30.24S
TOLEDO METCALF MOCLDY    20  15  81 SW7       30.25S WCI  11
LIMA           PTCLDY    25  20  81 SW7       30.23S HAZE    WCI  17

$$
AND FOR LAKE MICHIGAN COASTAL AND OPEN LAKE BUOY OBSERVATIONS

STATION/POSITION TEMP    WIND        PRES    VSBY  WAVE
                 AIR SEA DIR/SP/G                  HT/PER
                 (F)     (DEG/KT/KT) (MB)    (MI)  (FT/S)
CALUMET HARBOR    23     240/  8/ 13 1024.7R
MICHIGAN CITY     23     210/ 13/ 16   N/A
SAINT JOSEPH      23     200/ 10/ 13 1025.7R

$$
&&



USA.gov is the U.S. government's official web portal to all federal, state and local government web resources and services.